Weather History for New York, NY

Change the Weather History Date:

Sunday, April 27, 2014

  Actual Average Record
Temperature  
Mean Temperature 52 °F 57 °F  
Max Temperature 57 °F 65 °F 89 °F (1990)
Min Temperature 47 °F 48 °F 38 °F (1946)
Degree Days  
Heating Degree Days 13 9  
Month to date heating degree days 366 353  
Since 1 July heating degree days 4881 4489  
Cooling Degree Days 0 0  
Month to date cooling degree days 0 0  
Year to date cooling degree days 0 0  
Growing Degree Days 2 (Base 50)    
Moisture  
Dew Point 33 °F    
Average Humidity 50    
Maximum Humidity 61    
Minimum Humidity 38    
Precipitation  
Precipitation 0.00 in 0.13 in 1.85 in (2007)
Month to date precipitation 2.94 3.64  
Year to date precipitation 13.89 13.54  
Snow  
Snow 0.00 in 0.00 in - ()
Month to date snowfall 0.3 0.5  
Since 1 July snowfall 52.4 26.9  
Snow Depth 0.00 in    
Sea Level Pressure  
Sea Level Pressure 29.98 in    
Wind  
Wind Speed 13 mph (NNW)    
Max Wind Speed 22 mph    
Max Gust Speed 26 mph    
Visibility 10 miles    
Events      
T = Trace of Precipitation, MM = Missing Value Source: NWS Daily Summary

Daily Weather History Graph

Daily Weather History Graph

Search for Another Location

Airport:

Trip Planner

Search our weather history database for the weather conditions in past years. The results will help you decide how hot, cold, wet, or windy it might be!

Date:

Astronomy

Apr. 27, 2014 Rise Set
Actual Time 5:59 AM EDT 7:47 PM EDT
Civil Twilight 5:29 AM EDT 8:17 PM EDT
Nautical Twilight 4:54 AM EDT 8:52 PM EDT
Astronomical Twilight 4:16 AM EDT 9:31 PM EDT
Moon 4:58 AM EDT (4/27) 6:18 PM EDT (4/27)
Length of Visible Light 14h 47m
Length of Day
13h 48m
Waning Crescent, 3% of the Moon is Illuminated
Apr 27
Waning Crescent
Apr 29
New
May 6
First Quarter
May 14
Full
May 21
Last Quarter

Hourly Weather History & Observations

Time (EDT) Temp. Dew Point Humidity Pressure Visibility Wind Dir Wind Speed Gust Speed Precip Events Conditions
12:51 AM 51.8 °F 35.6 °F 54% 29.88 in 10.0 mi NW 9.2 mph - N/A   Mostly Cloudy
1:51 AM 50.0 °F 36.0 °F 59% 29.88 in 10.0 mi NW 13.8 mph - N/A   Scattered Clouds
2:51 AM 48.9 °F 35.1 °F 59% 29.88 in 10.0 mi NNW 13.8 mph - N/A   Scattered Clouds
3:51 AM 48.2 °F 33.8 °F 58% 29.89 in 10.0 mi NNW 8.1 mph - N/A   Partly Cloudy
4:51 AM 48.0 °F 35.1 °F 61% 29.89 in 10.0 mi NW 12.7 mph - N/A   Partly Cloudy
5:51 AM 46.9 °F 34.0 °F 61% 29.92 in 10.0 mi NNW 10.4 mph - N/A   Partly Cloudy
6:51 AM 48.2 °F 33.8 °F 58% 29.94 in 10.0 mi NW 12.7 mph - N/A   Partly Cloudy
7:51 AM 48.0 °F 34.0 °F 58% 29.95 in 10.0 mi NW 13.8 mph 21.9 mph N/A   Scattered Clouds
8:51 AM 48.9 °F 33.1 °F 54% 29.96 in 10.0 mi NW 20.7 mph - N/A   Scattered Clouds
9:51 AM 51.1 °F 33.1 °F 50% 29.98 in 10.0 mi NW 17.3 mph 21.9 mph N/A   Scattered Clouds
10:51 AM 52.0 °F 30.9 °F 45% 29.99 in 10.0 mi NNW 9.2 mph 20.7 mph N/A   Mostly Cloudy
11:51 AM 54.0 °F 30.9 °F 41% 29.98 in 10.0 mi NNW 15.0 mph 23.0 mph N/A   Scattered Clouds
12:51 PM 54.0 °F 32.0 °F 43% 29.98 in 10.0 mi NW 13.8 mph - N/A   Mostly Cloudy
1:51 PM 55.9 °F 30.9 °F 39% 29.98 in 10.0 mi NNW 16.1 mph 25.3 mph N/A   Mostly Cloudy
2:51 PM 55.9 °F 32.0 °F 40% 29.99 in 10.0 mi NW 16.1 mph - N/A   Mostly Cloudy
3:51 PM 55.9 °F 30.9 °F 39% 29.99 in 10.0 mi North 17.3 mph - N/A   Mostly Cloudy
4:51 PM 55.9 °F 30.9 °F 39% 29.99 in 10.0 mi North 13.8 mph - N/A   Mostly Cloudy
5:51 PM 55.0 °F 30.9 °F 40% 30.01 in 10.0 mi NNW 12.7 mph - N/A   Mostly Cloudy
6:51 PM 55.0 °F 30.9 °F 40% 30.03 in 10.0 mi North 11.5 mph - N/A   Mostly Cloudy
7:51 PM 55.0 °F 30.9 °F 40% 30.05 in 10.0 mi North 10.4 mph - N/A   Mostly Cloudy
8:51 PM 55.0 °F 32.0 °F 42% 30.08 in 10.0 mi NNW 13.8 mph - N/A   Mostly Cloudy
9:51 PM 53.1 °F 34.0 °F 48% 30.11 in 10.0 mi North 9.2 mph - N/A   Mostly Cloudy
10:51 PM 51.8 °F 35.6 °F 54% 30.11 in 10.0 mi NNW 10.4 mph - N/A   Scattered Clouds
11:51 PM 51.8 °F 33.8 °F 50% 30.12 in 10.0 mi NNW 12.7 mph - N/A   Partly Cloudy